Terug naar catalogus

QIANFAN-151

ActiefCommunicatiePO
NORAD 69110·PAYLOAD·🇨🇳 China

Gelanceerd May 17, 2026 vanaf Wenchang Space Launch Site

Loading…

Volgende Passages (komende 24 uur)

TLE

VersSource: Space-Track

Epoch: Sep 14, 2026, 13:41 UTC

1 69110U 26108G   26257.57058272  .00000097  00000-0  13240-3 0  9991
2 69110  89.0189  13.1146 0001817 101.8154 258.3201 13.51026639 16506

Volg QIANFAN-151 in realtime met AllMySat

Download on the App Store